contact:dominique.lefevre@mio.osupytheas.fr, maurice.libes@osupytheas.fr, didier.mallarino@osupytheas.fr
Project:EMSO http://www.emso-fr.org/EMSO-France
Depth: 2436.0 m
Title:EMSO Ligure Ouest : Data MII capteur AQUADOPP
Date,Latitude,Longitude,X_East,Y_North,Z_Up,Amplitude_X,Amplitude_Y,Amplitude_Z,Batterie,SoundSpeed,Heading,Pitch,Roll,Pressure,TIS,Speed,Direction
, degrees North, degrees East, m.s-1, m.s-1,m.s-1, 1, 1, 1, Volt, m.s-1, degree, degree, degree, dbar, degree_C, m.s-1, degree
2023-01-12T00:04:03,42.805,6.029,0.01,-0.014,-0.039,100.0,100.0,100.0,13.3,1505.2,316.0,-0.8,1.8,2471.249,13.28,0.017,144.5
2023-01-12T00:07:03,42.805,6.029,-0.007,0.0,-0.008,100.0,99.0,101.0,13.4,1505.2,320.1,-0.8,1.8,2471.24,13.28,0.007,270.0
2023-01-12T00:10:03,42.805,6.029,0.006,-0.025,-0.026,101.0,100.0,101.0,13.4,1505.2,329.0,-0.8,1.8,2471.2,13.28,0.025,166.5
2023-01-12T00:13:03,42.805,6.029,-0.001,0.0,-0.02,100.0,100.0,102.0,13.4,1505.2,329.6,-0.7,1.8,2471.219,13.29,0.001,270.0
2023-01-12T00:16:03,42.805,6.029,0.006,-0.004,-0.034,101.0,102.0,99.0,13.4,1505.2,328.0,-0.8,1.8,2471.23,13.29,0.007,123.7
2023-01-12T00:19:03,42.805,6.029,0.011,-0.008,-0.011,102.0,101.0,99.0,13.4,1505.2,331.3,-0.7,1.8,2471.21,13.29,0.013,126.0
2023-01-12T00:22:03,42.805,6.029,0.03,-0.003,-0.003,101.0,101.0,100.0,13.4,1505.2,329.0,-0.7,1.9,2471.202,13.29,0.03,95.7
2023-01-12T00:25:03,42.805,6.029,0.002,-0.009,-0.034,100.0,100.0,100.0,13.4,1505.2,326.7,-0.8,1.8,2471.193,13.29,0.009,167.5
2023-01-12T00:28:03,42.805,6.029,0.029,-0.024,-0.031,99.0,101.0,101.0,13.3,1505.2,320.4,-0.8,1.9,2471.213,13.29,0.037,129.6
2023-01-12T00:31:03,42.805,6.029,0.025,0.016,0.005,100.0,100.0,101.0,13.4,1505.2,320.0,-0.7,1.8,2471.18,13.29,0.029,57.4
2023-01-12T00:34:03,42.805,6.029,0.017,-0.008,-0.009,101.0,101.0,101.0,13.3,1505.2,326.5,-0.8,1.8,2471.166,13.29,0.018,115.2
2023-01-12T00:37:03,42.805,6.029,0.0,0.004,-0.014,100.0,100.0,101.0,13.3,1505.2,324.6,-0.7,1.8,2471.193,13.29,0.004,0.0
2023-01-12T00:40:03,42.805,6.029,0.023,0.006,-0.002,100.0,101.0,100.0,13.4,1505.2,333.8,-0.8,1.8,2471.191,13.29,0.023,75.4
2023-01-12T00:43:03,42.805,6.029,0.009,-0.012,-0.049,102.0,101.0,100.0,13.4,1505.2,322.2,-0.7,1.8,2471.141,13.29,0.015,143.1
2023-01-12T00:46:03,42.805,6.029,0.007,-0.001,-0.006,100.0,101.0,100.0,13.3,1505.2,333.8,-0.8,1.8,2471.176,13.29,0.007,98.1
2023-01-12T00:49:03,42.805,6.029,0.015,0.011,0.026,101.0,100.0,101.0,13.4,1505.2,330.2,-0.8,1.8,2471.166,13.29,0.018,53.7
2023-01-12T00:52:03,42.805,6.029,0.002,0.0,-0.034,101.0,101.0,101.0,13.3,1505.2,334.2,-0.8,1.8,2471.126,13.29,0.002,90.0
2023-01-12T00:55:03,42.805,6.029,0.036,-0.019,-0.036,100.0,100.0,101.0,13.4,1505.2,316.4,-0.7,1.8,2471.171,13.29,0.04,117.8
2023-01-12T00:58:03,42.805,6.029,-0.018,0.009,-0.026,100.0,100.0,101.0,13.4,1505.2,336.3,-0.7,1.8,2471.158,13.29,0.02,296.6
2023-01-12T01:04:03,42.805,6.029,0.039,-0.017,-0.075,103.0,100.0,102.0,13.4,1505.2,330.1,-0.8,1.8,2471.168,13.28,0.042,113.5
2023-01-12T01:07:03,42.805,6.029,0.019,0.022,0.017,100.0,101.0,101.0,13.4,1505.2,321.5,-0.8,1.8,2471.214,13.28,0.029,40.8
2023-01-12T01:10:03,42.805,6.029,0.015,-0.003,-0.032,100.0,101.0,101.0,13.4,1505.2,325.8,-0.8,1.8,2471.207,13.28,0.015,101.3
2023-01-12T01:13:03,42.805,6.029,0.02,0.0,-0.028,101.0,100.0,101.0,13.3,1505.2,329.0,-0.7,1.8,2471.187,13.28,0.02,90.0
2023-01-12T01:16:03,42.805,6.029,0.015,-0.017,0.0,101.0,101.0,100.0,13.4,1505.2,331.6,-0.7,1.8,2471.172,13.29,0.022,138.6
2023-01-12T01:19:03,42.805,6.029,0.021,-0.016,-0.03,100.0,102.0,100.0,13.4,1505.2,327.5,-0.7,1.8,2471.159,13.29,0.026,127.3
2023-01-12T01:22:03,42.805,6.029,-0.008,0.023,-0.003,101.0,101.0,100.0,13.4,1505.2,328.5,-0.7,1.8,2471.18,13.29,0.024,340.8
2023-01-12T01:25:03,42.805,6.029,0.0,0.001,0.002,98.0,100.0,102.0,13.4,1505.2,329.0,-0.7,1.8,2471.195,13.29,0.001,0.0
2023-01-12T01:28:03,42.805,6.029,0.018,-0.007,-0.002,100.0,100.0,101.0,13.4,1505.2,322.8,-0.8,1.8,2471.159,13.29,0.019,111.2
2023-01-12T01:31:03,42.805,6.029,0.053,-0.013,-0.003,100.0,101.0,100.0,13.4,1505.2,331.0,-0.7,1.8,2471.12,13.29,0.054,103.8
2023-01-12T01:34:03,42.805,6.029,0.023,-0.009,0.015,101.0,100.0,101.0,13.4,1505.2,338.6,-0.8,1.8,2471.132,13.29,0.024,111.4
2023-01-12T01:37:03,42.805,6.029,0.009,0.01,0.014,101.0,101.0,101.0,13.4,1505.2,325.3,-0.8,1.8,2471.141,13.29,0.013,42.0
2023-01-12T01:40:03,42.805,6.029,0.014,0.0,0.017,100.0,101.0,101.0,13.3,1505.2,322.6,-0.7,1.8,2471.171,13.29,0.014,90.0
2023-01-12T01:43:03,42.805,6.029,0.014,0.019,0.016,101.0,100.0,100.0,13.4,1505.2,324.6,-0.8,1.8,2471.176,13.29,0.023,36.4
2023-01-12T01:46:03,42.805,6.029,0.013,-0.03,-0.032,101.0,101.0,101.0,13.3,1505.2,327.5,-0.8,1.8,2471.159,13.29,0.032,156.6
2023-01-12T01:49:03,42.805,6.029,-0.005,-0.006,-0.009,101.0,101.0,101.0,13.3,1505.2,332.1,-0.8,1.8,2471.158,13.29,0.007,219.8
2023-01-12T01:52:03,42.805,6.029,0.011,-0.003,0.002,100.0,99.0,101.0,13.4,1505.2,317.1,-0.8,1.8,2471.16,13.29,0.011,105.3
2023-01-12T01:55:03,42.805,6.029,0.001,0.01,-0.001,101.0,101.0,100.0,13.4,1505.2,323.4,-0.7,1.8,2471.146,13.29,0.01,5.7
2023-01-12T01:58:03,42.805,6.029,0.014,-0.008,-0.022,101.0,101.0,101.0,13.3,1505.2,336.5,-0.8,1.8,2471.148,13.29,0.016,119.7
2023-01-12T02:04:03,42.805,6.029,0.018,-0.004,-0.019,101.0,101.0,101.0,13.4,1505.2,325.1,-0.8,1.8,2471.173,13.28,0.018,102.5
2023-01-12T02:07:03,42.805,6.029,0.011,-0.011,-0.003,101.0,101.0,101.0,13.4,1505.2,331.9,-0.8,1.8,2471.185,13.28,0.015,135.0
2023-01-12T02:10:03,42.805,6.029,0.021,-0.023,-0.011,100.0,101.0,101.0,13.3,1505.2,334.1,-0.7,1.8,2471.159,13.28,0.031,137.6
2023-01-12T02:13:03,42.805,6.029,0.012,-0.02,-0.043,100.0,101.0,101.0,13.4,1505.2,330.2,-0.8,1.8,2471.147,13.28,0.023,149.0
2023-01-12T02:16:03,42.805,6.029,0.005,-0.005,-0.013,101.0,101.0,99.0,13.3,1505.2,320.3,-0.8,1.8,2471.214,13.28,0.007,135.0
2023-01-12T02:19:03,42.805,6.029,-0.001,-0.009,-0.042,100.0,100.0,100.0,13.4,1505.2,320.4,-0.8,1.8,2471.174,13.29,0.009,186.3
2023-01-12T02:22:03,42.805,6.029,0.023,0.016,0.013,100.0,101.0,101.0,13.3,1505.2,330.5,-0.7,1.8,2471.11,13.29,0.028,55.2
2023-01-12T02:25:03,42.805,6.029,0.015,0.0,-0.029,99.0,100.0,101.0,13.4,1505.2,321.4,-0.8,1.8,2471.169,13.29,0.015,90.0
2023-01-12T02:28:03,42.805,6.029,0.007,-0.002,-0.017,101.0,100.0,101.0,13.4,1505.2,324.4,-0.7,1.8,2471.14,13.29,0.007,105.9
2023-01-12T02:31:03,42.805,6.029,0.013,-0.003,-0.018,100.0,104.0,99.0,13.3,1505.2,316.5,-0.8,1.8,2471.165,13.29,0.013,103.0
2023-01-12T02:34:03,42.805,6.029,0.007,-0.004,-0.007,100.0,100.0,100.0,13.3,1505.2,325.2,-0.8,1.8,2471.146,13.29,0.008,119.7
2023-01-12T02:37:03,42.805,6.029,0.001,-0.004,-0.04,102.0,100.0,99.0,13.4,1505.2,337.8,-0.8,1.8,2471.141,13.29,0.004,166.0
2023-01-12T02:40:03,42.805,6.029,0.004,-0.001,-0.026,100.0,100.0,101.0,13.3,1505.2,320.5,-0.8,1.8,2471.139,13.29,0.004,104.0
2023-01-12T02:43:03,42.805,6.029,0.017,-0.011,-0.035,101.0,100.0,101.0,13.3,1505.2,335.6,-0.8,1.8,2471.142,13.29,0.02,122.9
2023-01-12T02:46:03,42.805,6.029,-0.01,0.011,0.002,100.0,101.0,101.0,13.3,1505.2,326.3,-0.8,1.8,2471.152,13.29,0.014,317.7
2023-01-12T02:49:03,42.805,6.029,0.005,-0.008,-0.026,101.0,101.0,100.0,13.3,1505.2,337.8,-0.8,1.8,2471.135,13.29,0.009,148.0
2023-01-12T02:52:03,42.805,6.029,0.026,-0.007,-0.032,102.0,99.0,100.0,13.4,1505.2,324.8,-0.7,1.8,2471.117,13.29,0.026,105.1
2023-01-12T02:55:03,42.805,6.029,0.023,0.007,-0.022,100.0,101.0,100.0,13.4,1505.2,321.4,-0.8,1.8,2471.151,13.29,0.024,73.1
2023-01-12T02:58:03,42.805,6.029,0.0,-0.005,-0.044,100.0,100.0,100.0,13.3,1505.2,321.8,-0.8,1.8,2471.146,13.29,0.005,180.0
2023-01-12T03:04:03,42.805,6.029,0.0,-0.003,-0.02,99.0,101.0,100.0,13.4,1505.2,318.5,-0.8,1.8,2471.172,13.28,0.003,180.0
2023-01-12T03:07:03,42.805,6.029,0.003,0.0,0.003,100.0,101.0,101.0,13.4,1505.2,335.8,-0.8,1.8,2471.18,13.28,0.003,90.0
2023-01-12T03:10:03,42.805,6.029,0.003,0.002,-0.043,100.0,101.0,100.0,13.4,1505.2,331.1,-0.8,1.8,2471.225,13.28,0.003,56.3
2023-01-12T03:13:03,42.805,6.029,0.001,0.005,0.004,101.0,101.0,100.0,13.3,1505.2,335.4,-0.7,1.8,2471.135,13.28,0.005,11.3
2023-01-12T03:16:03,42.805,6.029,-0.009,0.012,-0.003,101.0,100.0,103.0,13.3,1505.2,327.8,-0.8,1.8,2471.091,13.29,0.015,323.1
2023-01-12T03:19:03,42.805,6.029,0.02,-0.008,-0.021,100.0,101.0,101.0,13.4,1505.2,322.9,-0.8,1.8,2471.123,13.29,0.021,111.8
2023-01-12T03:22:03,42.805,6.029,0.018,0.01,0.005,100.0,101.0,101.0,13.4,1505.2,317.1,-0.7,1.8,2471.168,13.29,0.02,60.9
2023-01-12T03:25:03,42.805,6.029,-0.022,0.008,-0.029,100.0,101.0,100.0,13.4,1505.2,323.7,-0.8,1.8,2471.147,13.29,0.023,290.0
2023-01-12T03:28:03,42.805,6.029,0.022,-0.011,-0.024,101.0,100.0,101.0,13.4,1505.2,320.1,-0.8,1.8,2471.117,13.29,0.024,116.6
2023-01-12T03:31:03,42.805,6.029,0.006,-0.018,-0.038,100.0,101.0,100.0,13.4,1505.2,325.4,-0.8,1.8,2471.174,13.29,0.018,161.6
2023-01-12T03:34:03,42.805,6.029,0.011,0.002,-0.003,101.0,101.0,101.0,13.3,1505.2,326.7,-0.7,1.8,2471.102,13.29,0.011,79.7
2023-01-12T03:37:03,42.805,6.029,0.01,0.031,0.037,100.0,101.0,100.0,13.4,1505.2,335.0,-0.7,1.8,2471.156,13.29,0.032,17.9
2023-01-12T03:40:03,42.805,6.029,0.038,0.0,-0.012,101.0,101.0,101.0,13.4,1505.2,324.1,-0.7,1.8,2471.123,13.29,0.038,90.0
2023-01-12T03:43:03,42.805,6.029,0.025,0.017,0.022,101.0,100.0,101.0,13.3,1505.2,325.8,-0.7,1.8,2471.134,13.29,0.03,55.8
2023-01-12T03:46:03,42.805,6.029,0.035,-0.01,0.017,103.0,99.0,101.0,13.4,1505.2,321.2,-0.8,1.8,2471.162,13.29,0.036,105.9
2023-01-12T03:49:03,42.805,6.029,0.027,-0.014,-0.011,100.0,102.0,100.0,13.3,1505.2,321.8,-0.7,1.8,2471.139,13.29,0.03,117.4
2023-01-12T03:52:03,42.805,6.029,0.01,-0.001,0.007,100.0,101.0,101.0,13.4,1505.2,328.1,-0.8,1.8,2471.105,13.29,0.01,95.7
2023-01-12T03:55:03,42.805,6.029,0.028,-0.009,0.005,101.0,100.0,101.0,13.4,1505.2,323.4,-0.8,1.8,2471.095,13.29,0.029,107.8
2023-01-12T03:58:03,42.805,6.029,0.037,-0.024,-0.017,100.0,101.0,101.0,13.4,1505.2,323.4,-0.7,1.8,2471.139,13.29,0.044,123.0
2023-01-12T04:04:03,42.805,6.029,0.0,0.013,-0.012,100.0,101.0,101.0,13.4,1505.2,330.0,-0.8,1.8,2471.137,13.28,0.013,0.0
2023-01-12T04:07:03,42.805,6.029,0.041,-0.022,0.013,101.0,101.0,100.0,13.4,1505.2,329.0,-0.7,1.8,2471.107,13.28,0.046,118.2
2023-01-12T04:10:03,42.805,6.029,0.001,0.008,0.026,102.0,99.0,101.0,13.4,1505.2,338.5,-0.7,1.8,2471.149,13.28,0.008,7.1
2023-01-12T04:13:03,42.805,6.029,0.013,-0.008,-0.01,101.0,101.0,100.0,13.4,1505.2,320.0,-0.8,1.8,2471.13,13.28,0.015,121.6
2023-01-12T04:16:03,42.805,6.029,0.033,-0.019,-0.018,100.0,101.0,100.0,13.3,1505.2,322.6,-0.8,1.8,2471.106,13.29,0.038,119.9
2023-01-12T04:19:03,42.805,6.029,0.005,-0.023,-0.044,101.0,101.0,101.0,13.3,1505.2,339.0,-0.8,1.8,2471.13,13.29,0.023,167.7
2023-01-12T04:22:03,42.805,6.029,-0.004,-0.004,-0.036,99.0,102.0,99.0,13.4,1505.2,326.0,-0.7,1.8,2471.154,13.29,0.005,225.0
2023-01-12T04:25:03,42.805,6.029,0.021,-0.026,0.0,100.0,103.0,99.0,13.4,1505.2,337.8,-0.8,1.8,2471.146,13.29,0.033,141.1
2023-01-12T04:28:03,42.805,6.029,0.032,-0.013,-0.029,101.0,101.0,100.0,13.4,1505.2,322.6,-0.8,1.8,2471.136,13.29,0.034,112.1
2023-01-12T04:31:03,42.805,6.029,0.022,0.001,-0.033,101.0,100.0,100.0,13.4,1505.2,326.9,-0.7,1.8,2471.134,13.29,0.022,87.4
2023-01-12T04:34:03,42.805,6.029,0.001,0.007,-0.026,101.0,100.0,100.0,13.3,1505.2,319.1,-0.8,1.8,2471.147,13.29,0.007,8.1
2023-01-12T04:37:03,42.805,6.029,0.023,-0.014,-0.003,101.0,101.0,101.0,13.4,1505.2,328.7,-0.8,1.8,2471.109,13.29,0.026,121.3
2023-01-12T04:40:03,42.805,6.029,0.044,0.011,0.023,101.0,100.0,101.0,13.3,1505.2,318.0,-0.8,1.8,2471.141,13.29,0.045,76.0
2023-01-12T04:43:03,42.805,6.029,-0.005,-0.015,-0.021,101.0,99.0,102.0,13.3,1505.2,330.5,-0.8,1.8,2471.109,13.29,0.015,198.4
2023-01-12T04:46:03,42.805,6.029,0.024,-0.015,-0.034,101.0,101.0,101.0,13.4,1505.2,321.5,-0.7,1.8,2471.111,13.29,0.028,122.0
2023-01-12T04:49:03,42.805,6.029,0.014,-0.018,-0.025,100.0,101.0,101.0,13.3,1505.2,323.1,-0.8,1.8,2471.117,13.29,0.022,142.1
2023-01-12T04:52:03,42.805,6.029,0.03,-0.026,-0.01,101.0,101.0,101.0,13.4,1505.2,337.7,-0.8,1.8,2471.122,13.29,0.039,130.9
2023-01-12T04:55:03,42.805,6.029,0.024,-0.013,0.0,100.0,101.0,101.0,13.4,1505.2,326.5,-0.7,1.8,2471.119,13.29,0.027,118.4
2023-01-12T04:58:03,42.805,6.029,0.016,-0.019,0.009,102.0,101.0,101.0,13.3,1505.2,335.8,-0.8,1.8,2471.147,13.29,0.024,139.9
2023-01-12T05:04:03,42.805,6.029,0.016,-0.004,0.001,101.0,102.0,101.0,13.4,1505.2,333.0,-0.8,1.8,2471.164,13.28,0.016,104.0
2023-01-12T05:07:03,42.805,6.029,0.036,-0.005,0.019,100.0,101.0,101.0,13.3,1505.2,325.6,-0.8,1.8,2471.141,13.28,0.036,97.9
2023-01-12T05:10:03,42.805,6.029,0.012,0.014,0.013,101.0,101.0,101.0,13.3,1505.2,317.0,-0.8,1.8,2471.154,13.28,0.018,40.6
2023-01-12T05:13:03,42.805,6.029,0.038,0.006,0.029,100.0,100.0,101.0,13.4,1505.2,323.7,-0.8,1.8,2471.174,13.28,0.038,81.0
2023-01-12T05:16:03,42.805,6.029,0.025,-0.007,0.002,101.0,100.0,100.0,13.4,1505.2,322.4,-0.8,1.8,2471.148,13.28,0.025,105.6
2023-01-12T05:19:03,42.805,6.029,0.026,0.013,0.011,100.0,100.0,101.0,13.4,1505.2,320.4,-0.8,1.8,2471.146,13.28,0.029,63.4
2023-01-12T05:22:03,42.805,6.029,0.038,0.0,0.014,100.0,101.0,100.0,13.3,1505.2,322.5,-0.8,1.8,2471.121,13.28,0.038,90.0
2023-01-12T05:25:03,42.805,6.029,0.018,-0.029,-0.031,101.0,101.0,101.0,13.4,1505.2,322.9,-0.8,1.8,2471.183,13.29,0.034,148.2
2023-01-12T05:28:03,42.805,6.029,0.037,-0.026,-0.029,101.0,100.0,101.0,13.4,1505.2,327.8,-0.7,1.8,2471.134,13.29,0.045,125.1
2023-01-12T05:31:03,42.805,6.029,0.048,-0.014,0.025,100.0,101.0,101.0,13.4,1505.2,330.6,-0.7,1.8,2471.118,13.29,0.05,106.3
2023-01-12T05:34:03,42.805,6.029,0.03,-0.023,-0.036,101.0,101.0,101.0,13.4,1505.2,318.6,-0.8,1.8,2471.118,13.29,0.037,127.5
2023-01-12T05:37:03,42.805,6.029,0.014,-0.015,-0.029,101.0,101.0,101.0,13.3,1505.2,324.3,-0.8,1.8,2471.116,13.29,0.02,137.0
2023-01-12T05:40:03,42.805,6.029,0.03,-0.03,-0.032,101.0,100.0,101.0,13.4,1505.2,336.8,-0.8,1.8,2471.151,13.29,0.042,135.0
2023-01-12T05:43:03,42.805,6.029,0.041,-0.014,-0.001,100.0,102.0,100.0,13.4,1505.2,326.5,-0.7,1.8,2471.141,13.29,0.043,108.9
2023-01-12T05:46:03,42.805,6.029,0.029,-0.028,-0.06,101.0,101.0,102.0,13.4,1505.2,326.3,-0.8,1.8,2471.113,13.29,0.04,134.0
2023-01-12T05:49:03,42.805,6.029,0.005,-0.005,-0.016,101.0,101.0,100.0,13.4,1505.2,321.3,-0.8,1.8,2471.172,13.29,0.007,135.0
2023-01-12T05:52:03,42.805,6.029,0.007,0.0,0.001,102.0,101.0,101.0,13.4,1505.2,320.0,-0.8,1.8,2471.187,13.29,0.007,90.0
2023-01-12T05:55:03,42.805,6.029,0.017,-0.029,-0.041,101.0,101.0,101.0,13.3,1505.2,330.6,-0.8,1.8,2471.156,13.29,0.033,149.6
2023-01-12T05:58:03,42.805,6.029,0.039,-0.014,-0.004,101.0,101.0,101.0,13.4,1505.2,328.7,-0.7,1.8,2471.138,13.29,0.041,109.7
2023-01-12T06:04:03,42.805,6.029,0.016,0.001,0.0,101.0,102.0,100.0,13.3,1505.2,333.4,-0.8,1.8,2471.19,13.28,0.016,86.4
2023-01-12T06:07:03,42.805,6.029,0.016,-0.027,-0.045,100.0,102.0,102.0,13.3,1505.2,321.3,-0.7,1.8,2471.189,13.28,0.031,149.3
2023-01-12T06:10:03,42.805,6.029,0.034,0.003,0.015,101.0,102.0,101.0,13.4,1505.2,326.1,-0.8,1.9,2471.19,13.28,0.034,85.0
2023-01-12T06:13:03,42.805,6.029,0.018,-0.015,-0.018,102.0,101.0,101.0,13.3,1505.2,318.0,-0.8,1.8,2471.157,13.28,0.023,129.8
2023-01-12T06:16:03,42.805,6.029,0.03,-0.016,0.015,102.0,102.0,101.0,13.4,1505.2,337.7,-0.8,1.8,2471.15,13.28,0.034,118.1
2023-01-12T06:19:03,42.805,6.029,0.01,-0.018,-0.024,101.0,101.0,101.0,13.4,1505.2,334.1,-0.8,1.8,2471.173,13.28,0.02,150.9
2023-01-12T06:22:03,42.805,6.029,0.034,-0.026,-0.024,101.0,102.0,101.0,13.4,1505.2,320.4,-0.8,1.9,2471.151,13.28,0.042,127.4
2023-01-12T06:25:03,42.805,6.029,0.012,-0.003,-0.008,101.0,101.0,101.0,13.4,1505.2,335.0,-0.8,1.8,2471.141,13.28,0.012,104.0
2023-01-12T06:28:03,42.805,6.029,0.019,-0.014,-0.028,101.0,101.0,101.0,13.4,1505.2,325.1,-0.8,1.8,2471.175,13.29,0.023,126.4
2023-01-12T06:31:03,42.805,6.029,0.027,0.003,0.004,102.0,101.0,100.0,13.3,1505.2,329.9,-0.8,1.8,2471.183,13.29,0.027,83.7
2023-01-12T06:34:03,42.805,6.029,0.032,0.014,0.02,101.0,102.0,101.0,13.4,1505.2,337.8,-0.7,1.8,2471.158,13.29,0.034,66.4
2023-01-12T06:37:03,42.805,6.029,0.037,-0.02,-0.023,101.0,100.0,101.0,13.4,1505.2,327.3,-0.8,1.8,2471.174,13.29,0.042,118.4
2023-01-12T06:40:03,42.805,6.029,0.035,0.003,0.033,101.0,102.0,101.0,13.4,1505.2,338.3,-0.8,1.8,2471.163,13.29,0.035,85.1
2023-01-12T06:43:03,42.805,6.029,0.02,-0.008,-0.023,101.0,101.0,100.0,13.4,1505.2,329.3,-0.8,1.8,2471.141,13.29,0.021,111.8
2023-01-12T06:46:03,42.805,6.029,0.033,-0.01,-0.012,101.0,101.0,101.0,13.4,1505.2,324.6,-0.8,1.8,2471.142,13.28,0.034,106.9
2023-01-12T06:49:03,42.805,6.029,0.023,-0.03,-0.034,101.0,101.0,101.0,13.4,1505.2,323.4,-0.8,1.8,2471.191,13.29,0.037,142.5
2023-01-12T06:52:03,42.805,6.029,0.051,-0.029,-0.013,101.0,102.0,100.0,13.4,1505.2,331.6,-0.8,1.8,2471.178,13.29,0.058,119.6
2023-01-12T06:55:03,42.805,6.029,0.015,-0.006,-0.028,100.0,101.0,101.0,13.4,1505.2,333.0,-0.7,1.8,2471.176,13.29,0.016,111.8
2023-01-12T06:58:03,42.805,6.029,0.043,-0.021,-0.017,100.0,101.0,101.0,13.4,1505.2,333.7,-0.8,1.9,2471.156,13.29,0.047,116.0
2023-01-12T07:04:03,42.805,6.029,0.024,-0.003,-0.014,101.0,101.0,101.0,13.4,1505.2,318.0,-0.8,1.9,2471.217,13.28,0.024,97.1
2023-01-12T07:07:03,42.805,6.029,0.058,-0.018,0.015,100.0,101.0,100.0,13.3,1505.2,330.3,-0.8,1.8,2471.249,13.28,0.06,107.2
2023-01-12T07:10:03,42.805,6.029,0.049,0.004,0.055,100.0,101.0,101.0,13.4,1505.2,331.0,-0.8,1.8,2471.228,13.28,0.049,85.3
2023-01-12T07:13:03,42.805,6.029,0.018,-0.014,-0.004,101.0,100.0,101.0,13.4,1505.2,335.7,-0.7,1.8,2471.228,13.28,0.022,127.9
2023-01-12T07:16:03,42.805,6.029,0.065,-0.028,-0.022,101.0,101.0,100.0,13.3,1505.2,324.6,-0.8,1.8,2471.199,13.28,0.07,113.3
2023-01-12T07:19:03,42.805,6.029,0.004,0.004,-0.012,100.0,101.0,101.0,13.3,1505.2,320.3,-0.8,1.8,2471.225,13.28,0.005,45.0
2023-01-12T07:22:03,42.805,6.029,0.019,-0.025,-0.003,100.0,100.0,101.0,13.3,1505.2,322.7,-0.7,1.8,2471.206,13.28,0.031,142.8
2023-01-12T07:25:03,42.805,6.029,0.038,-0.029,-0.016,101.0,101.0,101.0,13.4,1505.2,332.3,-0.7,1.8,2471.236,13.28,0.047,127.3
2023-01-12T07:28:03,42.805,6.029,0.038,-0.022,0.015,102.0,101.0,100.0,13.3,1505.2,322.5,-0.8,1.8,2471.234,13.28,0.043,120.1
2023-01-12T07:31:03,42.805,6.029,0.012,-0.007,0.013,100.0,104.0,100.0,13.4,1505.2,325.0,-0.8,1.8,2471.173,13.28,0.013,120.3
2023-01-12T07:34:03,42.805,6.029,0.038,-0.034,0.006,100.0,101.0,101.0,13.4,1505.2,330.0,-0.8,1.8,2471.197,13.29,0.05,131.8
2023-01-12T07:37:03,42.805,6.029,0.036,-0.012,0.012,100.0,101.0,101.0,13.4,1505.2,321.8,-0.8,1.8,2471.185,13.28,0.037,108.4
2023-01-12T07:40:03,42.805,6.029,0.034,-0.014,-0.028,99.0,100.0,101.0,13.4,1505.2,324.3,-0.7,1.8,2471.204,13.28,0.036,112.4
2023-01-12T07:43:03,42.805,6.029,0.024,-0.035,-0.041,100.0,101.0,101.0,13.4,1505.2,334.6,-0.7,1.8,2471.205,13.29,0.042,145.6
2023-01-12T07:46:03,42.805,6.029,0.03,-0.008,-0.018,100.0,102.0,100.0,13.4,1505.2,317.7,-0.8,1.8,2471.25,13.28,0.031,104.9
2023-01-12T07:49:03,42.805,6.029,0.025,-0.01,0.027,101.0,99.0,101.0,13.3,1505.2,324.3,-0.8,1.8,2471.211,13.29,0.026,111.8
2023-01-12T07:52:03,42.805,6.029,0.026,-0.013,-0.013,100.0,101.0,101.0,13.4,1505.2,320.9,-0.8,1.8,2471.246,13.29,0.029,116.6
2023-01-12T07:55:03,42.805,6.029,0.028,-0.02,-0.021,100.0,102.0,100.0,13.3,1505.2,323.9,-0.8,1.8,2471.227,13.29,0.034,125.5
2023-01-12T07:58:03,42.805,6.029,0.029,-0.007,-0.008,101.0,100.0,100.0,13.3,1505.2,326.3,-0.8,1.8,2471.26,13.29,0.029,103.6
2023-01-12T08:04:03,42.805,6.029,0.016,-0.038,-0.026,101.0,100.0,100.0,13.4,1505.2,321.8,-0.8,1.8,2471.268,13.28,0.041,157.2
2023-01-12T08:07:03,42.805,6.029,0.029,-0.02,-0.007,99.0,100.0,101.0,13.3,1505.2,329.6,-0.7,1.8,2471.31,13.28,0.035,124.6
2023-01-12T08:10:03,42.805,6.029,0.024,-0.011,-0.007,100.0,100.0,101.0,13.4,1505.2,332.6,-0.8,1.8,2471.269,13.28,0.026,114.6
2023-01-12T08:13:03,42.805,6.029,0.044,-0.016,0.006,100.0,102.0,100.0,13.4,1505.2,320.8,-0.8,1.8,2471.299,13.28,0.046,110.0
2023-01-12T08:16:03,42.805,6.029,0.006,-0.017,-0.023,100.0,100.0,100.0,13.4,1505.2,317.0,-0.8,1.8,2471.265,13.28,0.018,160.6
2023-01-12T08:19:03,42.805,6.029,0.027,-0.032,-0.015,99.0,101.0,100.0,13.4,1505.2,335.9,-0.8,1.8,2471.3,13.28,0.041,139.8
2023-01-12T08:22:03,42.805,6.029,0.021,-0.013,0.0,101.0,100.0,100.0,13.3,1505.2,330.6,-0.8,1.8,2471.263,13.28,0.024,121.8
2023-01-12T08:25:03,42.805,6.029,-0.004,-0.014,-0.048,101.0,102.0,99.0,13.4,1505.2,324.8,-0.8,1.8,2471.303,13.28,0.014,195.9
2023-01-12T08:28:03,42.805,6.029,0.02,-0.019,-0.033,102.0,99.0,100.0,13.4,1505.2,329.3,-0.8,1.8,2471.241,13.29,0.027,133.5
2023-01-12T08:31:03,42.805,6.029,0.044,-0.022,-0.007,101.0,100.0,100.0,13.4,1505.2,320.0,-0.8,1.8,2471.285,13.28,0.049,116.6
2023-01-12T08:34:03,42.805,6.029,0.043,-0.02,-0.008,99.0,101.0,101.0,13.4,1505.2,323.4,-0.8,1.9,2471.296,13.28,0.047,114.9
2023-01-12T08:37:03,42.805,6.029,0.015,-0.014,-0.007,101.0,101.0,102.0,13.3,1505.2,321.9,-0.8,1.8,2471.258,13.28,0.02,133.0
2023-01-12T08:40:03,42.805,6.029,0.018,-0.004,-0.012,101.0,100.0,100.0,13.3,1505.2,317.5,-0.8,1.8,2471.304,13.29,0.018,102.5
2023-01-12T08:43:03,42.805,6.029,0.02,-0.014,-0.04,100.0,102.0,100.0,13.4,1505.2,321.2,-0.7,1.8,2471.275,13.29,0.024,125.0
2023-01-12T08:46:03,42.805,6.029,0.017,-0.017,-0.008,100.0,101.0,101.0,13.4,1505.2,335.4,-0.8,1.8,2471.302,13.29,0.024,135.0
2023-01-12T08:49:03,42.805,6.029,0.023,-0.024,-0.001,100.0,101.0,101.0,13.3,1505.2,331.6,-0.8,1.8,2471.274,13.29,0.033,136.2
2023-01-12T08:52:03,42.805,6.029,0.035,-0.006,-0.003,101.0,101.0,101.0,13.4,1505.2,326.7,-0.8,1.8,2471.3,13.29,0.035,99.7
2023-01-12T08:55:03,42.805,6.029,0.026,-0.015,-0.051,101.0,101.0,100.0,13.4,1505.2,321.9,-0.8,1.8,2471.266,13.29,0.03,120.0
2023-01-12T08:58:03,42.805,6.029,0.007,-0.006,-0.009,101.0,102.0,101.0,13.3,1505.2,325.4,-0.7,1.8,2471.287,13.29,0.009,130.6
2023-01-12T09:04:03,42.805,6.029,0.029,-0.019,-0.032,101.0,101.0,100.0,13.4,1505.2,330.7,-0.7,1.8,2471.331,13.28,0.034,123.2
2023-01-12T09:07:03,42.805,6.029,0.008,-0.022,-0.024,101.0,101.0,100.0,13.4,1505.2,325.8,-0.7,1.8,2471.35,13.28,0.023,160.0
2023-01-12T09:10:03,42.805,6.029,0.027,0.0,0.021,100.0,100.0,101.0,13.4,1505.2,338.2,-0.8,1.8,2471.373,13.28,0.026,90.0
2023-01-12T09:13:03,42.805,6.029,0.0,-0.013,-0.007,100.0,101.0,101.0,13.4,1505.2,326.0,-0.8,1.8,2471.329,13.28,0.013,180.0
2023-01-12T09:16:03,42.805,6.029,0.033,-0.005,-0.01,101.0,100.0,101.0,13.4,1505.2,322.0,-0.8,1.8,2471.303,13.28,0.033,98.6
2023-01-12T09:19:03,42.805,6.029,0.02,-0.005,-0.016,100.0,102.0,100.0,13.4,1505.2,326.7,-0.8,1.8,2471.336,13.28,0.02,104.0
2023-01-12T09:22:03,42.805,6.029,0.001,-0.014,-0.045,100.0,100.0,101.0,13.4,1505.2,333.4,-0.8,1.8,2471.309,13.28,0.014,175.9
2023-01-12T09:25:03,42.805,6.029,0.019,0.0,-0.008,100.0,101.0,101.0,13.4,1505.2,318.4,-0.8,1.9,2471.311,13.29,0.019,90.0
2023-01-12T09:28:03,42.805,6.029,0.041,-0.012,0.009,101.0,101.0,101.0,13.4,1505.2,325.4,-0.8,1.8,2471.323,13.29,0.042,106.3
2023-01-12T09:31:03,42.805,6.029,0.017,-0.02,-0.039,101.0,101.0,101.0,13.4,1505.2,324.0,-0.8,1.8,2471.317,13.29,0.026,139.6
2023-01-12T09:34:03,42.805,6.029,0.026,-0.007,-0.003,102.0,101.0,100.0,13.4,1505.2,326.3,-0.8,1.8,2471.324,13.29,0.026,105.1
2023-01-12T09:37:03,42.805,6.029,0.016,-0.021,0.012,101.0,101.0,100.0,13.4,1505.2,330.2,-0.8,1.8,2471.312,13.29,0.026,142.7
2023-01-12T09:40:03,42.805,6.029,0.009,-0.008,-0.017,100.0,101.0,101.0,13.3,1505.2,321.4,-0.7,1.8,2471.289,13.29,0.012,131.6
2023-01-12T09:43:03,42.805,6.029,0.03,-0.019,0.0,100.0,101.0,100.0,13.4,1505.2,335.4,-0.8,1.8,2471.35,13.29,0.035,122.3
2023-01-12T09:46:03,42.805,6.029,0.03,-0.023,-0.031,101.0,101.0,101.0,13.4,1505.2,322.2,-0.7,1.8,2471.29,13.29,0.037,127.5
2023-01-12T09:49:03,42.805,6.029,0.023,-0.018,-0.023,101.0,102.0,100.0,13.4,1505.2,322.1,-0.7,1.8,2471.277,13.29,0.029,128.0
2023-01-12T09:52:03,42.805,6.029,0.013,0.005,-0.012,101.0,101.0,100.0,13.3,1505.2,328.2,-0.8,1.8,2471.304,13.29,0.013,69.0
2023-01-12T09:55:03,42.805,6.029,0.013,-0.027,-0.034,100.0,101.0,100.0,13.3,1505.2,318.9,-0.7,1.8,2471.297,13.29,0.029,154.3
2023-01-12T09:58:03,42.805,6.029,0.041,-0.015,-0.006,102.0,101.0,101.0,13.4,1505.2,328.4,-0.7,1.8,2471.304,13.29,0.043,110.1